STARLINK Z (44258 NORAD) Tracking and Keplerian Element Data

This shows tracking and keplerian element data for the satellite.

Feedback or suggestion? Click here.




ElementValue
Catalog44258
NameSTARLINK Z
Epoch Orbit406
Epoch Day170.14539849
Epoch Year2019
RAAN55.1088
Inclination53.008
Eccentricity0.0003181
Argument of Perigee99.5724
Mean Anonmoly254.9939
Mean Motion15.0556711
Decay Rate0.0066637
L11 44258U 19029Z 19170.14539849 .00666370 00000-0 42739-1 0 9999
L22 44258 53.0080 55.1088 0003181 99.5724 254.9939 15.05567110 4069

Live tracking and technical data element details for STARLINK Z (NORAD 44258). STARLINK Z can be tracked NOW for your location showing map with azimuth and elevation plus other details from your city location.

Track the satellite on the map from your city or location and see movement details for azimuth, elevation, latitude, longitude, range, height, and movement on the map or in text.







IsCatalogInMostPopularTable: catalog: 44258, numindb: 38
Update: records affected: 1



GetName: 44258 STARLINK Z

Hit Count: updated at: Sun, 21 Jul 2019 20:55:51 GMT